Location: Asheville, NC
(35.6000°N, 82.5500°W)
Time: 20:31:01
(UTC-04:00)

Vanguard 2 - Pass Details

Date: 08 March 2018
Orbit: 553 x 2939 km, 32.9° (Epoch: 20 June)

Event Time Altitude Azimuth Distance (km) Brightness Sun altitude
Rises 20:27:18 0° 277° (W) 5,838 13.4 -24.2°
Reaches altitude 10° 20:34:36 10° 253° (WSW) 4,204 12.0 -25.6°
Maximum altitude 20:38:33 13° 232° (SW) 3,613 11.4 -26.4°
Drops below altitude 10° 20:41:58 10° 209° (SSW) 3,462 11.0 -27.1°
Sets 20:46:39 0° 181° (S) 3,924 11.0 -28.0°
